STARLINK-32636, 62232

Orbit data source: Space-Track

STARLINK-32636, 62232 is a payload satellite owned by SpaceX/Seattle (US) in LEO that was launched on Thu, 05 Dec 2024 UTC via an FALCON 9 launch vehicle from the Air Force Western Test Range (AFWTR). Payload-class satellites include a variety of spacecraft equipped with specific instruments for various scientific and technological missions. These include communications satellites like Starlink; space stations such as the ISS; scientific satellites like the Hubble; Earth observation satellites from companies like Planet Labs, Umbra, and HawkEye 360; GPS; miniature CubeSats for education and research; and military/defense satellites.

Loading next visibility...
Identifier
62232, 2024-231Q
Orbit
LEO
Last TLE update
23 hours ago
Origin
Manufacturer
SpaceX/Seattle
Mission
Operational Commercial Communications
Bus & Motor
STARLINK V2M, Unknown motor
Mass
730 kg wet, ~700 kg dry
Launch date (UTC)
2024-12-05 (7 months ago)
Launch vehicle
FALCON 9
Launch site
Air Force Western Test Range (AFWTR)
Object type
Payload
Rocket body
Debris
Shape & HBR
Box + 2 Pan, 29 m
Radar Cross Section
33.884 m², Large (>1 m²)

Expand to show TLE details & history

TLE from 23 hours ago
0 STARLINK-32636
1 62232U 24231Q   25191.51345673  .00002118  00000-0  83588-4 0  9997
2 62232  53.1581 264.2721 0001440  82.6794 277.4370 15.30214672 34692
Epoch: 2025-07-10T12:19Z
TLE epoch observation values (Epoch: 2025-07-10T12:19:22.661Z)
Latitude
-0.00005°
Longitude
150.74898°
Altitude
475.943 km
Speed
7.629 km/s
True Right ascension
17h 37m 05s
True Declination
0° 00' 00"
Sunlit
Object was in full shadow at epoch
Visualization orbit readout
Latitude
39.18468°
Longitude
-71.00593°
Altitude
477.847 km
Speed
7.632 km/s
Apparent Right ascension
06h 40m 52s
Apparent Declination
2° 51' 47"
Sunlit
Object is in daylight
Visualization observer readout
Local Sidereal Time
23:07:27
Azimuth
72.317° E
Elevation
-15.758°
Doppler factor
1
Orbital elements
Apogee altitude
476.415 km
Perigee altitude
474.441 km
Semi-major axis
6,853.565 km
Eccentricity
0.00014
Inclination
53.1581°
RAAN
264.2721°
Arg. of periapsis
82.6794°
True anomaly
Unknown
Mean anomaly
277.437°
Eccentric anomaly
Unknown
Mean motion
3.82533 °/min
Orbital period
94.11 mins
BSTAR
0.000083588
Loading maneuver chart data...
Loading SW <> Apogee altitude chart data...
Loading historical data...
Loading historical data...
Loading historical data...
Loading historical data...
Loading historical data...
Loading historical data...
Loading historical data...

STARLINK-32636 Visibility forecast

Observer location: undefined°, undefined°

Span
Click to sort rows by Start time (UTC) header in descending order
Start Az.
Max El. time (UTC)
Max El. Az.
Max El.
End time (UTC)
End Az.
5 mins2025-07-11 13:54:31.475Z332.696° NNW2025-07-11 13:56:31.475Z56.93° ENE36.929°2025-07-11 13:59:31.475Z112.042° ESE
5 mins2025-07-12 06:49:31.475Z202.877° SW2025-07-12 06:51:31.475Z145.865° SSE37.2°2025-07-12 06:54:31.475Z62.822° ENE
4 mins2025-07-12 08:28:31.475Z301.314° NW2025-07-12 08:29:31.475Z325.916° NNW22.503°2025-07-12 08:32:31.475Z26.665° NE
|